Regional Weather Roundup
Issued by NWS

Home | Current Version | Previous Version | Text Only | Print | Product List | Glossary Off
Versions: 1 2 3 4 5 6 7 8 9 10 11 12 13 14 15 16 17 18 19 20 21 22 23 24 25 26 27 28 29 30 31 32 33 34 35 36 37 38 39 40 41 42 43 44 45 46 47 48 49 50

000
ASUS45 KSLC 120210
RWRUT

UTAH REGIONAL WEATHER ROUNDUP
NATIONAL WEATHER SERVICE SALT LAKE CITY UT
800 PM MDT FRI JUL 11 2014

UTZ001>011-023>025-120300-

NORTHERN UTAH

CITY           SKY/WX    TMP DP  RH WIND       PRES   REMARKS
HILL AFB       CLEAR     81  58  45 N8        30.11R
LOGAN          PTCLDY    78  55  44 N8        30.10R
OGDEN          CLEAR     81  56  42 N8        30.08R
PROVO AIRPORT  NOT AVBL
SALT LAKE CITY PTCLDY    84  56  38 N10       30.05R
VERNAL         PTCLDY    78  56  46 N10       30.09
WENDOVER       CLOUDY    82  48  30 SW13      30.05S
HEBER CITY     CLEAR     73  55  53 N5        30.16R
WEST JORDAN    CLEAR     84  61  45 NW12      30.09R

$$

UTZ012>022-026-027-120300-

SOUTHERN UTAH

CITY           SKY/WX    TMP DP  RH WIND       PRES   REMARKS
BRYCE CANYON   PTCLDY    71  47  42 NW8       30.31R
CEDAR CITY     CLEAR     82  41  23 SW8       30.13R
MILFORD        MOCLDY    86  49  27 SW20G25   30.07R
MOAB/CYNLANDS  CLEAR     91  41  17 SW12      29.96S
PRICE          PTCLDY    78  49  35 NW8       30.13S
ST GEORGE      CLEAR     95  46  18 W7        29.94R HX  91

$$

REGIONAL REPORTS     COLORADO/ARIZONA

CITY           SKY/WX    TMP DP  RH WIND       PRES   REMARKS
CRAIG, CO      PTCLDY    71  59  65 N7        30.14R
GRAND JUNCTION MOCLDY    87  51  28 S10       30.01R
RIFLE          MOCLDY    74  57  55 E7        30.11R THUNDER
MONTROSE       PTCLDY    81  48  31 E22       30.11R
CORTEZ         CLEAR     87  42  20 W9        30.12R
PAGE, AZ       CLEAR     94  42  16 W8G16     30.00R HX  90
GRAND CANYON   CLEAR     78  44  29 N3        30.23R
KINGMAN        NOT AVBL
FLAGSTAFF      PTCLDY    77  46  33 W7        30.27R

$$

REGIONAL REPORTS    NEVADA/IDAHO/WYOMING

CITY           SKY/WX    TMP DP  RH WIND       PRES   REMARKS
LAS VEGAS, NV  MOSUNNY   99  33  10 S13       29.83R HX  93
ELY            PTSUNNY   78  49  35 S10       30.17S
ELKO           CLOUDY    77  50  38 W15       30.09R
POCATELLO, ID  SUNNY     79  48  33 S12       30.05R
BURLEY         PTSUNNY   75  53  46 SW21G29   30.00S
EVANSTON, WY   CLOUDY    68  54  60 E6        30.28R
ROCK SPRINGS   CLOUDY    63  56  78 NE15G21   30.27R

$$


USA.gov is the U.S. government's official web portal to all federal, state and local government web resources and services.